Date,TemperatureHighF,TemperatureAvgF,TemperatureLowF,DewpointHighF,DewpointAvgF,DewpointLowF,HumidityHigh,HumidityAvg,HumidityLow,PressureMaxIn,PressureMinIn,WindSpeedMaxMPH,WindSpeedAvgMPH,GustSpeedMaxMPH,PrecipitationSumIn
2013-11-1,91.4,82.1,74.8,78.4,73.3,70.5,94,76,55,29.90,29.76,12,3,12,0.00
2013-11-2,95.0,80.3,70.7,82.0,71.0,63.5,99,77,37,29.83,29.68,12,2,12,0.00
2013-11-3,86.5,75.5,68.5,66.0,63.0,58.6,90,67,44,29.90,29.77,15,4,15,0.00
2013-11-4,85.5,77.9,73.9,68.7,63.5,52.3,83,62,34,29.95,29.87,25,6,25,0.01
2013-11-5,83.5,78.3,73.8,75.4,69.3,64.8,99,74,61,29.97,29.88,21,8,21,0.07
2013-11-6,92.1,78.9,70.7,80.1,70.9,68.7,99,78,57,29.94,29.87,22,5,22,0.07
2013-11-7,94.5,78.2,68.2,76.3,70.3,64.0,99,80,38,29.90,29.79,8,2,8,0.00
2013-11-8,89.1,76.4,70.7,76.8,72.1,67.1,99,89,51,29.92,29.81,17,3,17,0.35
2013-11-9,84.0,77.0,73.0,77.4,74.6,72.0,99,93,77,29.99,29.88,21,7,21,0.50
2013-11-10,90.3,79.6,73.4,76.1,72.0,68.5,99,79,54,30.00,29.91,15,5,15,0.07
2013-11-11,88.2,77.5,70.2,74.8,69.8,66.2,99,78,55,30.00,29.92,15,3,15,0.00
2013-11-12,91.0,78.0,68.7,74.8,69.0,66.7,99,76,46,29.95,29.84,10,2,10,0.00
2013-11-13,81.0,72.7,69.3,69.4,65.0,58.1,95,77,58,30.08,29.87,16,4,16,0.04
2013-11-14,79.9,73.4,69.1,63.7,58.8,55.2,71,60,50,30.12,30.00,22,7,22,0.00
2013-11-15,91.8,76.4,71.6,73.8,66.9,60.8,99,74,55,30.02,29.90,17,7,17,0.52
2013-11-16,81.3,77.9,74.5,74.8,70.0,65.1,99,77,61,29.98,29.88,18,5,18,0.06
2013-11-17,84.7,78.7,71.4,74.1,71.1,64.2,99,78,62,29.96,29.88,17,5,17,0.06
2013-11-18,87.1,77.3,69.4,81.0,71.3,69.1,99,83,60,29.91,29.80,10,1,10,0.00
2013-11-19,91.2,76.4,71.4,76.5,72.8,70.7,99,90,54,29.83,29.72,11,2,11,0.32
2013-11-20,89.4,76.6,69.4,79.3,73.0,69.1,99,90,61,29.94,29.80,11,1,11,0.01
2013-11-21,86.4,76.3,70.3,82.4,72.9,69.4,99,90,62,30.02,29.93,17,4,17,1.85
2013-11-22,83.5,76.9,72.0,75.9,72.7,71.2,99,88,69,30.03,29.94,20,6,20,2.34
2013-11-23,84.2,77.4,70.9,74.1,72.4,69.3,99,85,68,29.95,29.84,15,3,15,0.00
2013-11-24,87.1,75.3,67.6,73.6,68.9,64.6,99,83,50,30.02,29.86,20,3,20,0.14
2013-11-25,79.2,74.0,70.7,68.4,64.7,61.3,86,73,65,30.07,29.98,21,9,21,0.14